Regional Weather Roundup
Issued by NWS Green Bay, WI

Home | Current Version | Previous Version | Graphics & Text | Print | Product List | Glossary Off
Versions: 1 2 3 4 5 6 7 8 9 10 11 12 13 14 15 16 17 18 19 20 21 22 23 24 25 26 27 28 29 30 31 32 33 34 35 36 37 38 39 40 41 42 43 44 45 46 47 48 49 50

000
ASUS43 KGRB 280911
RWRGRB

NORTH-CENTRAL AND NORTHEAST WISCONSIN REGIONAL WEATHER ROUNDUP
NATIONAL WEATHER SERVICE GREEN BAY WI
400 AM CDT THU JUL 28 2016

WIZ005-009-010>012-018-019-281000-
NORTH CENTRAL WISCONSIN

CITY           SKY/WX    TMP DP  RH WIND       PRES   REMARKS
IRONWOOD       CLOUDY    61  59  94 CALM      30.03S
MANITOWISH WTR CLOUDY    60  60 100 NE6       30.04R
ARBOR VITAE    CLOUDY    62  60  94 E5        30.04R
EAGLE RIVER    CLOUDY    59  58  97 E6        30.04R
LAND O LAKES   CLOUDY    59  57  94 CALM      30.06S
RHINELANDER    CLOUDY    60  57  89 NE7       30.04R
PHILLIPS       CLOUDY    63  63  99 NE9       30.01S
ANTIGO         LGT RAIN  58  58  98 E7        30.01F
TOMAHAWK       CLOUDY    62  61  96 NE7       30.01S
MERRILL        DRIZZLE   63  63 100 E7        30.00R
$$

WIZ013-073-281000-
NORTHEAST WISCONSIN

CITY           SKY/WX    TMP DP  RH WIND       PRES   REMARKS
IRON MOUNTAIN  LGT RAIN  60  57  89 N5        30.02S FOG
MARINETTE      RAIN     N/A N/A N/A NE7       29.99R
OCONTO         CLOUDY   N/A N/A N/A CALM      29.97S
$$

WIZ017-030-035>037-045-281000-
CENTRAL WISCONSIN

CITY           SKY/WX    TMP DP  RH WIND       PRES   REMARKS
MEDFORD        HVY RAIN  63  63 100 NE6       29.98S
WAUSAU         LGT RAIN  63  62  97 NE9       29.96S
MOSINEE        DRIZZLE   63  63 100 NE10      29.97S
MARSHFIELD     CLOUDY    66  63  90 E8        29.94F
WISC RAPIDS    MOCLDY    65  62  90 E8        29.95S
STEVENS POINT  CLOUDY    63  63  99 E7        29.96S
WAUPACA        CLOUDY    67  67  99 NE5       29.95S
SHAWANO        LGT RAIN  64  61  93 NE9       29.98S
CLINTONVILLE   LGT RAIN  63  63 100 NE6       29.97S
WAUTOMA        CLOUDY    66  65  96 E6        29.94F
$$

WIZ038-039-048-051-281000-
FOX VALLEY

CITY           SKY/WX    TMP DP  RH WIND       PRES   REMARKS
NWS GREEN BAY  CLOUDY    66  65  96 NE8       29.96S
APPLETON       CLOUDY    66  66 100 NE8       29.95S
OSHKOSH        CLOUDY    70  66  87 E13       29.94R
FOND DU LAC    CLOUDY    69  65  86 E8        29.95R
$$

WIZ022-050-052-281000-
EAST CENTRAL WISCONSIN

CITY           SKY/WX    TMP DP  RH WIND       PRES   REMARKS
EPHRAIM        LGT RAIN  62  61  97 NE6       29.97S
WASHINGTON ISL NOT AVBL
STURGEON BAY   CLOUDY    64  61  90 NE7       29.98R
MANITOWOC      CLOUDY    66  60  81 N5        29.96S
SHEBOYGAN      CLOUDY    65  62  90 NE15      29.95S
$$

LMZ563-521-522-541>543-281000-
LAKESHORE

STATION/POSITION TIME  TEMP    WIND        PRES    VSBY  WAVE
                       AIR SEA DIR/SP/G                  HT/PER
                 (UTC) (F)     (DEG/KT/KT) (MB)    (MI)  (FT/S)
SHEBOYGAN LKSHOR 0900   61     350/ 12/ 13 1014.1F
KEWAUNEE LKSHORE 0800   63      20/  4/  8 1013.9F
ALGOMA MARINA    0828           60/ 13/ 17   N/A
NORTHPORT PIER   0800   64      30/  8/ 10 1015.6F
N MID LAKE BUOY  0850   65 69   50/ 16/ 17 1014.5F         2/ 4
CHAMBERS ISLAND  0800   66      40/ 13/ 15 1015.2F
MENOMINEE LKSHOR 0800   66      40/ 19/ 22 1014.1F
$$




USA.gov is the U.S. government's official web portal to all federal, state and local government web resources and services.